| time (UTC) | temp F | wind direction | speed MPH | gust MPH | rain 1hr in | rain 24hr in | rain mn in | humidity % | barometer mb |
| 20260504234610 | 71 | 360 | 0.0 | 1.0 | 0.00 | 0.00 | 0.00 | 40 | 1013.8 |
| 20260504234050 | 71 | 0 | 0.0 | 4.0 | 0.00 | 0.00 | 0.00 | 38 | 1013.7 |
| 20260504233554 | 71 | 0 | 0.0 | 4.0 | 0.00 | 0.00 | 0.00 | 37 | 1013.5 |
| 20260504233104 | 71 | 360 | 0.0 | 10.0 | 0.00 | 0.00 | 0.00 | 36 | 1013.6 |
| 20260504232550 | 71 | 360 | 3.0 | 10.0 | 0.00 | 0.00 | 0.00 | 38 | 1013.8 |
| 20260504232052 | 71 | 360 | 3.0 | 9.0 | 0.00 | 0.00 | 0.00 | 36 | 1014.1 |
| 20260504231553 | 71 | 360 | 1.0 | 8.0 | 0.00 | 0.00 | 0.00 | 35 | 1014.0 |
| 20260504231049 | 71 | 0 | 1.0 | 8.0 | 0.00 | 0.00 | 0.00 | 36 | 1014.1 |
| 20260504230553 | 71 | 360 | 3.0 | 11.0 | 0.00 | 0.00 | 0.00 | 36 | 1014.4 |
| 20260504230051 | 72 | 360 | 4.0 | 11.0 | 0.00 | 0.00 | 0.00 | 36 | 1014.3 |
| 20260504225552 | 73 | 360 | 5.0 | 18.0 | 0.00 | 0.00 | 0.00 | 31 | 1014.3 |
| 20260504225052 | 74 | 360 | 9.0 | 18.0 | 0.00 | 0.00 | 0.00 | 29 | 1014.2 |
| 20260504224609 | 75 | 360 | 4.0 | 20.0 | 0.00 | 0.00 | 0.00 | 27 | 1014.0 |
| 20260504224053 | 75 | 360 | 6.0 | 26.0 | 0.00 | 0.00 | 0.00 | 25 | 1013.6 |
| 20260504223554 | 76 | 360 | 11.0 | 26.0 | 0.00 | 0.00 | 0.00 | 22 | 1013.6 |
| 20260504223051 | 76 | 360 | 11.0 | 23.0 | 0.00 | 0.00 | 0.00 | 23 | 1013.6 |
| 20260504222553 | 76 | 360 | 8.0 | 17.0 | 0.00 | 0.00 | 0.00 | 23 | 1013.6 |
| 20260504222053 | 77 | 360 | 3.0 | 21.0 | 0.00 | 0.00 | 0.00 | 22 | 1013.7 |
| 20260504221555 | 77 | 360 | 8.0 | 24.0 | 0.00 | 0.00 | 0.00 | 21 | 1013.7 |
| 20260504221052 | 77 | 360 | 13.0 | 24.0 | 0.00 | 0.00 | 0.00 | 20 | 1013.8 |
| 20260504220555 | 78 | 360 | 10.0 | 18.0 | 0.00 | 0.00 | 0.00 | 20 | 1013.5 |
| 20260504220058 | 78 | 360 | 10.0 | 18.0 | 0.00 | 0.00 | 0.00 | 19 | 1013.3 |
| 20260504215553 | 78 | 360 | 9.0 | 19.0 | 0.00 | 0.00 | 0.00 | 19 | 1013.4 |
| 20260504215056 | 79 | 360 | 8.0 | 22.0 | 0.00 | 0.00 | 0.00 | 20 | 1013.5 |
| 20260504214552 | 79 | 360 | 11.0 | 22.0 | 0.00 | 0.00 | 0.00 | 20 | 1013.5 |
| 20260504214053 | 79 | 360 | 8.0 | 19.0 | 0.00 | 0.00 | 0.00 | 19 | 1013.4 |
| 20260504213553 | 80 | 360 | 8.0 | 19.0 | 0.00 | 0.00 | 0.00 | 18 | 1013.4 |
| 20260504213124 | 81 | 360 | 7.0 | 19.0 | 0.00 | 0.00 | 0.00 | 18 | 1013.3 |
| 20260504212554 | 81 | 360 | 5.0 | 15.0 | 0.00 | 0.00 | 0.00 | 17 | 1013.3 |
| 20260504212055 | 81 | 360 | 10.0 | 15.0 | 0.00 | 0.00 | 0.00 | 17 | 1013.4 |
| 20260504211559 | 82 | 360 | 5.0 | 11.0 | 0.00 | 0.00 | 0.00 | 16 | 1013.1 |
| 20260504211053 | 82 | 360 | 3.0 | 12.0 | 0.00 | 0.00 | 0.00 | 16 | 1013.2 |
| 20260504210553 | 82 | 360 | 2.0 | 13.0 | 0.00 | 0.00 | 0.00 | 17 | 1013.1 |
| 20260504210053 | 82 | 360 | 4.0 | 13.0 | 0.00 | 0.00 | 0.00 | 17 | 1013.1 |
| 20260504205553 | 81 | 360 | 4.0 | 10.0 | 0.00 | 0.00 | 0.00 | 17 | 1013.2 |
| 20260504205053 | 81 | 360 | 4.0 | 10.0 | 0.00 | 0.00 | 0.00 | 17 | 1013.4 |
| 20260504204554 | 81 | 360 | 1.0 | 9.0 | 0.00 | 0.00 | 0.00 | 15 | 1013.3 |
| 20260504204050 | 81 | 360 | 3.0 | 10.0 | 0.00 | 0.00 | 0.00 | 16 | 1013.3 |
| 20260504203557 | 81 | 360 | 1.0 | 10.0 | 0.00 | 0.00 | 0.00 | 16 | 1013.2 |
| 20260504203112 | 81 | 360 | 5.0 | 10.0 | 0.00 | 0.00 | 0.00 | 16 | 1013.3 |
| 20260504202553 | 81 | 360 | 3.0 | 10.0 | 0.00 | 0.00 | 0.00 | 16 | 1013.3 |
| 20260504202048 | 81 | 360 | 4.0 | 12.0 | 0.00 | 0.00 | 0.00 | 16 | 1013.4 |
| 20260504201551 | 81 | 0 | 6.0 | 12.0 | 0.00 | 0.00 | 0.00 | 16 | 1013.3 |
| 20260504201053 | 81 | 360 | 3.0 | 9.0 | 0.00 | 0.00 | 0.00 | 16 | 1013.4 |
| 20260504200554 | 80 | 360 | 3.0 | 13.0 | 0.00 | 0.00 | 0.00 | 17 | 1013.4 |
| 20260504200053 | 80 | 360 | 5.0 | 13.0 | 0.00 | 0.00 | 0.00 | 17 | 1013.5 |
| 20260504195555 | 80 | 360 | 4.0 | 13.0 | 0.00 | 0.00 | 0.00 | 17 | 1013.4 |
| 20260504195052 | 80 | 360 | 3.0 | 15.0 | 0.00 | 0.00 | 0.00 | 17 | 1013.5 |
| 20260504194603 | 81 | 360 | 5.0 | 15.0 | 0.00 | 0.00 | 0.00 | 17 | 1013.5 |
| 20260504194053 | 81 | 360 | 7.0 | 15.0 | 0.00 | 0.00 | 0.00 | 16 | 1013.6 |
| 20260504193553 | 81 | 360 | 6.0 | 14.0 | 0.00 | 0.00 | 0.00 | 17 | 1013.5 |
| 20260504193100 | 81 | 360 | 1.0 | 8.0 | 0.00 | 0.00 | 0.00 | 16 | 1013.4 |
| 20260504192552 | 80 | 0 | 2.0 | 11.0 | 0.00 | 0.00 | 0.00 | 18 | 1013.3 |
| 20260504192052 | 80 | 360 | 4.0 | 11.0 | 0.00 | 0.00 | 0.00 | 17 | 1013.4 |
| 20260504191553 | 80 | 360 | 3.0 | 11.0 | 0.00 | 0.00 | 0.00 | 18 | 1013.4 |
| 20260504191053 | 81 | 360 | 3.0 | 13.0 | 0.00 | 0.00 | 0.00 | 18 | 1013.4 |
| 20260504190557 | 81 | 360 | 5.0 | 13.0 | 0.00 | 0.00 | 0.00 | 18 | 1013.6 |
| 20260504190112 | 80 | 360 | 1.0 | 5.0 | 0.00 | 0.00 | 0.00 | 20 | 1013.4 |
| 20260504185553 | 80 | 0 | 1.0 | 9.0 | 0.00 | 0.00 | 0.00 | 21 | 1013.3 |
| 20260504185053 | 79 | 360 | 1.0 | 11.0 | 0.00 | 0.00 | 0.00 | 21 | 1013.4 |
| 20260504184559 | 78 | 0 | 4.0 | 11.0 | 0.00 | 0.00 | 0.00 | 21 | 1013.8 |
| 20260504184053 | 79 | 360 | 5.0 | 11.0 | 0.00 | 0.00 | 0.00 | 20 | 1013.8 |
| 20260504183556 | 79 | 360 | 1.0 | 10.0 | 0.00 | 0.00 | 0.00 | 21 | 1014.0 |
| 20260504183055 | 78 | 360 | 2.0 | 11.0 | 0.00 | 0.00 | 0.00 | 22 | 1013.9 |
| 20260504182557 | 78 | 0 | 5.0 | 14.0 | 0.00 | 0.00 | 0.00 | 21 | 1014.1 |
| 20260504182053 | 79 | 360 | 2.0 | 14.0 | 0.00 | 0.00 | 0.00 | 22 | 1014.2 |
| 20260504181550 | 79 | 360 | 1.0 | 12.0 | 0.00 | 0.00 | 0.00 | 21 | 1014.1 |
| 20260504181052 | 78 | 0 | 3.0 | 12.0 | 0.00 | 0.00 | 0.00 | 22 | 1014.2 |
| 20260504180553 | 78 | 360 | 2.0 | 11.0 | 0.00 | 0.00 | 0.00 | 23 | 1014.3 |
| 20260504180053 | 78 | 360 | 4.0 | 13.0 | 0.00 | 0.00 | 0.00 | 22 | 1014.3 |
| 20260504175556 | 78 | 360 | 5.0 | 13.0 | 0.00 | 0.00 | 0.00 | 23 | 1014.2 |
| 20260504175057 | 78 | 360 | 3.0 | 10.0 | 0.00 | 0.00 | 0.00 | 23 | 1014.3 |
| 20260504174601 | 77 | 360 | 4.0 | 15.0 | 0.00 | 0.00 | 0.00 | 23 | 1014.3 |
| 20260504174053 | 77 | 360 | 7.0 | 15.0 | 0.00 | 0.00 | 0.00 | 24 | 1014.1 |
| 20260504173555 | 77 | 360 | 4.0 | 13.0 | 0.00 | 0.00 | 0.00 | 23 | 1014.2 |
| 20260504173057 | 77 | 360 | 4.0 | 13.0 | 0.00 | 0.00 | 0.00 | 24 | 1014.2 |
| 20260504172552 | 77 | 360 | 3.0 | 12.0 | 0.00 | 0.00 | 0.00 | 25 | 1014.3 |
| 20260504172056 | 77 | 360 | 4.0 | 12.0 | 0.00 | 0.00 | 0.00 | 25 | 1014.1 |
| 20260504171551 | 77 | 360 | 5.0 | 12.0 | 0.00 | 0.00 | 0.00 | 25 | 1014.1 |
| 20260504171056 | 77 | 360 | 0.0 | 11.0 | 0.00 | 0.00 | 0.00 | 25 | 1014.2 |
| 20260504170554 | 77 | 360 | 2.0 | 11.0 | 0.00 | 0.00 | 0.00 | 25 | 1014.0 |
| 20260504160109 | 75 | 360 | 4.0 | 10.0 | 0.00 | 0.00 | 0.00 | 30 | 1014.1 |
| 20260504151052 | 74 | 360 | 2.0 | 12.0 | 0.00 | 0.00 | 0.00 | 33 | 1013.7 |
| 20260504150553 | 74 | 360 | 5.0 | 12.0 | 0.00 | 0.00 | 0.00 | 33 | 1013.9 |
| 20260504141053 | 71 | 360 | 0.0 | 4.0 | 0.00 | 0.00 | 0.00 | 35 | 1014.0 |
| 20260504140553 | 71 | 0 | 0.0 | 6.0 | 0.00 | 0.00 | 0.00 | 35 | 1013.8 |
| 20260504140109 | 70 | 360 | 1.0 | 10.0 | 0.00 | 0.00 | 0.00 | 35 | 1013.7 |
| 20260504130555 | 69 | 0 | 0.0 | 0.0 | 0.00 | 0.00 | 0.00 | 36 | 1013.3 |
| 20260504110553 | 70 | 360 | 1.0 | 5.0 | 0.00 | 0.00 | 0.00 | 34 | 1012.8 |
| 20260504110117 | 70 | 360 | 0.0 | 3.0 | 0.00 | 0.00 | 0.00 | 34 | 1012.6 |
| 20260504100553 | 71 | 360 | 2.0 | 6.0 | 0.00 | 0.00 | 0.00 | 33 | 1012.7 |
| 20260504090117 | 71 | 360 | 0.0 | 6.0 | 0.00 | 0.00 | 0.00 | 33 | 1012.2 |
| 20260504081556 | 72 | 0 | 0.0 | 3.0 | 0.00 | 0.00 | 0.00 | 32 | 1012.4 |
| 20260504081053 | 72 | 0 | 1.0 | 9.0 | 0.00 | 0.00 | 0.00 | 32 | 1012.4 |
| 20260504080556 | 72 | 360 | 1.0 | 9.0 | 0.00 | 0.00 | 0.00 | 32 | 1012.3 |
| 20260504050548 | 74 | 360 | 1.0 | 6.0 | 0.00 | 0.00 | 0.00 | 28 | 1013.3 |
| 20260504045553 | 74 | 360 | 2.0 | 6.0 | 0.00 | 0.00 | 0.00 | 28 | 1013.2 |
| 20260504045048 | 74 | 360 | 0.0 | 2.0 | 0.00 | 0.00 | 0.00 | 28 | 1013.1 |
| 20260504044602 | 75 | 0 | 0.0 | 12.0 | 0.00 | 0.00 | 0.00 | 28 | 1013.2 |
| 20260504044048 | 75 | 0 | 2.0 | 12.0 | 0.00 | 0.00 | 0.00 | 28 | 1013.2 |
| 20260504043548 | 75 | 360 | 2.0 | 12.0 | 0.00 | 0.00 | 0.00 | 28 | 1013.2 |
| 20260504043054 | 75 | 360 | 0.0 | 11.0 | 0.00 | 0.00 | 0.00 | 28 | 1013.2 |
| 20260504042548 | 75 | 360 | 3.0 | 12.0 | 0.00 | 0.00 | 0.00 | 28 | 1013.1 |
| 20260504042050 | 75 | 360 | 5.0 | 12.0 | 0.00 | 0.00 | 0.00 | 28 | 1013.1 |
| 20260504041554 | 75 | 360 | 1.0 | 12.0 | 0.00 | 0.00 | 0.00 | 27 | 1013.0 |
| 20260504041048 | 75 | 360 | 1.0 | 12.0 | 0.00 | 0.00 | 0.00 | 27 | 1013.1 |
| 20260504040547 | 75 | 360 | 4.0 | 12.0 | 0.00 | 0.00 | 0.00 | 27 | 1013.1 |
| 20260504040056 | 76 | 360 | 3.0 | 16.0 | 0.00 | 0.00 | 0.00 | 26 | 1012.9 |
| 20260504035553 | 76 | 360 | 6.0 | 16.0 | 0.00 | 0.00 | 0.00 | 25 | 1012.6 |
| 20260504035052 | 76 | 360 | 3.0 | 13.0 | 0.00 | 0.00 | 0.00 | 25 | 1012.4 |
| 20260504034603 | 76 | 360 | 4.0 | 17.0 | 0.00 | 0.00 | 0.00 | 24 | 1012.3 |
| 20260504034053 | 76 | 360 | 6.0 | 24.0 | 0.00 | 0.00 | 0.00 | 24 | 1012.2 |
| 20260504033553 | 77 | 360 | 6.0 | 24.0 | 0.00 | 0.00 | 0.00 | 23 | 1012.1 |
| 20260504033104 | 77 | 360 | 5.0 | 16.0 | 0.00 | 0.00 | 0.00 | 22 | 1012.0 |
| 20260504032556 | 77 | 360 | 6.0 | 27.0 | 0.00 | 0.00 | 0.00 | 22 | 1012.0 |
| 20260504032053 | 77 | 360 | 6.0 | 27.0 | 0.00 | 0.00 | 0.00 | 21 | 1012.0 |
| 20260504031553 | 77 | 360 | 9.0 | 27.0 | 0.00 | 0.00 | 0.00 | 21 | 1012.0 |
| 20260504031052 | 78 | 360 | 7.0 | 14.0 | 0.00 | 0.00 | 0.00 | 20 | 1011.9 |
| 20260504030555 | 78 | 360 | 6.0 | 13.0 | 0.00 | 0.00 | 0.00 | 20 | 1011.8 |
| 20260504030052 | 78 | 360 | 4.0 | 22.0 | 0.00 | 0.00 | 0.00 | 19 | 1011.6 |
| 20260504025553 | 78 | 360 | 6.0 | 22.0 | 0.00 | 0.00 | 0.00 | 19 | 1011.5 |
| 20260504025053 | 78 | 360 | 4.0 | 15.0 | 0.00 | 0.00 | 0.00 | 18 | 1011.2 |
| 20260504024552 | 79 | 360 | 5.0 | 18.0 | 0.00 | 0.00 | 0.00 | 18 | 1011.2 |
| 20260504024053 | 79 | 360 | 5.0 | 18.0 | 0.00 | 0.00 | 0.00 | 17 | 1011.2 |
| 20260504023553 | 79 | 360 | 6.0 | 16.0 | 0.00 | 0.00 | 0.00 | 17 | 1011.1 |
| 20260504023053 | 80 | 360 | 3.0 | 13.0 | 0.00 | 0.00 | 0.00 | 16 | 1010.9 |
| 20260504022553 | 80 | 360 | 5.0 | 13.0 | 0.00 | 0.00 | 0.00 | 16 | 1010.9 |
| 20260504022054 | 80 | 360 | 3.0 | 14.0 | 0.00 | 0.00 | 0.00 | 16 | 1010.8 |
| 20260504021551 | 80 | 360 | 4.0 | 17.0 | 0.00 | 0.00 | 0.00 | 15 | 1010.7 |
| 20260504021054 | 81 | 360 | 6.0 | 18.0 | 0.00 | 0.00 | 0.00 | 15 | 1010.5 |
| 20260504020553 | 81 | 360 | 6.0 | 18.0 | 0.00 | 0.00 | 0.00 | 15 | 1010.7 |
| 20260504020052 | 81 | 360 | 5.0 | 16.0 | 0.00 | 0.00 | 0.00 | 14 | 1010.6 |
| 20260504015553 | 81 | 360 | 3.0 | 12.0 | 0.00 | 0.00 | 0.00 | 14 | 1010.6 |
| 20260504015056 | 81 | 360 | 4.0 | 11.0 | 0.00 | 0.00 | 0.00 | 14 | 1010.3 |
| 20260504014551 | 82 | 360 | 4.0 | 21.0 | 0.00 | 0.00 | 0.00 | 13 | 1010.4 |
| 20260504014056 | 82 | 360 | 3.0 | 21.0 | 0.00 | 0.00 | 0.00 | 13 | 1010.4 |
| 20260504013552 | 82 | 360 | 4.0 | 15.0 | 0.00 | 0.00 | 0.00 | 13 | 1010.4 |
| 20260504013053 | 83 | 360 | 8.0 | 16.0 | 0.00 | 0.00 | 0.00 | 13 | 1010.4 |
| 20260504012553 | 83 | 360 | 5.0 | 16.0 | 0.00 | 0.00 | 0.00 | 12 | 1010.3 |
| 20260504012054 | 84 | 360 | 5.0 | 18.0 | 0.00 | 0.00 | 0.00 | 12 | 1010.2 |
| 20260504011552 | 85 | 360 | 5.0 | 18.0 | 0.00 | 0.00 | 0.00 | 12 | 1010.2 |
| 20260504011053 | 85 | 360 | 5.0 | 18.0 | 0.00 | 0.00 | 0.00 | 11 | 1010.3 |
| 20260504010553 | 86 | 360 | 5.0 | 16.0 | 0.00 | 0.00 | 0.00 | 11 | 1010.3 |
| 20260504010059 | 86 | 360 | 7.0 | 15.0 | 0.00 | 0.00 | 0.00 | 11 | 1010.4 |
| 20260504005632 | 86 | 360 | 6.0 | 15.0 | 0.00 | 0.00 | 0.00 | 11 | 1010.5 |
| 20260504005053 | 86 | 360 | 3.0 | 18.0 | 0.00 | 0.00 | 0.00 | 11 | 1010.6 |
| 20260504004553 | 86 | 360 | 6.0 | 18.0 | 0.00 | 0.00 | 0.00 | 11 | 1010.6 |
| 20260504004049 | 86 | 360 | 4.0 | 18.0 | 0.00 | 0.00 | 0.00 | 11 | 1010.6 |
| 20260504003555 | 86 | 360 | 4.0 | 18.0 | 0.00 | 0.00 | 0.00 | 11 | 1010.6 |
| 20260504003053 | 86 | 360 | 2.0 | 13.0 | 0.00 | 0.00 | 0.00 | 11 | 1010.3 |
| 20260504002551 | 86 | 360 | 3.0 | 14.0 | 0.00 | 0.00 | 0.00 | 10 | 1010.4 |
| 20260504002048 | 87 | 360 | 4.0 | 14.0 | 0.00 | 0.00 | 0.00 | 10 | 1010.4 |
| 20260504001611 | 87 | 360 | 4.0 | 13.0 | 0.00 | 0.00 | 0.00 | 10 | 1010.4 |
| 20260504001051 | 88 | 215 | 4.0 | 12.0 | 0.00 | 0.00 | 0.00 | 10 | 1010.3 |
| 20260504000552 | 88 | 136 | 5.0 | 17.0 | 0.00 | 0.00 | 0.00 | 10 | 1010.3 |
| 20260504000056 | 89 | 0 | 4.0 | 17.0 | 0.00 | 0.00 | 0.00 | 10 | 1010.2 |
| 20260503235550 | 89 | 219 | 8.0 | 17.0 | 0.00 | 0.00 | 0.00 | 9 | 1010.3 |
| 20260503235051 | 89 | 226 | 2.0 | 12.0 | 0.00 | 0.00 | 0.00 | 10 | 1010.3 |